TimeCST,TemperatureF,Dew PointF,Humidity,Sea Level PressureIn,VisibilityMPH,Wind Direction,Wind SpeedMPH,Gust SpeedMPH,PrecipitationIn,Events,Conditions,WindDirDegrees,DateUTC
12:15 AM,21.0,8.2,58,30.17,10.0,North,23.0,36.8,N/A,,Overcast,360,2013-12-29 06:15:00
12:35 AM,20.3,7.9,59,30.17,10.0,North,21.9,34.5,N/A,,Overcast,350,2013-12-29 06:35:00
12:55 AM,19.9,8.2,61,30.17,10.0,North,24.2,28.8,N/A,,Overcast,350,2013-12-29 06:55:00
1:15 AM,18.5,7.0,61,30.18,10.0,NNW,25.3,38.0,N/A,,Overcast,340,2013-12-29 07:15:00
1:35 AM,17.2,5.5,60,30.18,10.0,North,23.0,31.1,N/A,,Overcast,350,2013-12-29 07:35:00
1:55 AM,16.7,5.0,60,30.19,10.0,North,24.2,32.2,N/A,,Overcast,350,2013-12-29 07:55:00
2:15 AM,16.2,4.5,60,30.21,10.0,North,19.6,32.2,N/A,,Overcast,350,2013-12-29 08:15:00
2:35 AM,16.2,4.8,61,30.22,10.0,North,17.3,28.8,N/A,,Overcast,350,2013-12-29 08:35:00
2:55 AM,15.8,5.0,62,30.22,10.0,NNW,25.3,31.1,N/A,,Overcast,340,2013-12-29 08:55:00
3:15 AM,15.8,4.8,62,30.23,10.0,North,26.5,35.7,N/A,,Overcast,350,2013-12-29 09:15:00
3:35 AM,15.8,4.1,60,30.23,10.0,North,28.8,35.7,N/A,,Overcast,350,2013-12-29 09:35:00
3:55 AM,15.8,4.1,60,30.24,10.0,North,21.9,33.4,N/A,,Overcast,350,2013-12-29 09:55:00
4:15 AM,15.8,3.9,60,30.24,10.0,NNW,20.7,32.2,N/A,,Overcast,340,2013-12-29 10:15:00
4:35 AM,14.7,2.1,57,30.25,10.0,North,24.2,38.0,N/A,,Overcast,360,2013-12-29 10:35:00
4:55 AM,15.1,3.0,59,30.25,10.0,North,23.0,31.1,N/A,,Overcast,350,2013-12-29 10:55:00
5:15 AM,14.5,2.1,58,30.27,10.0,North,21.9,31.1,N/A,,Overcast,350,2013-12-29 11:15:00
5:35 AM,14.0,1.0,56,30.28,10.0,North,26.5,36.8,N/A,,Overcast,360,2013-12-29 11:35:00
5:55 AM,13.6,1.2,58,30.29,10.0,North,18.4,29.9,N/A,,Overcast,350,2013-12-29 11:55:00
6:15 AM,13.1,-0.4,55,30.30,10.0,North,26.5,34.5,N/A,,Mostly Cloudy,350,2013-12-29 12:15:00
6:35 AM,12.9,0.3,57,30.31,10.0,North,18.4,31.1,N/A,,Scattered Clouds,350,2013-12-29 12:35:00
6:55 AM,12.4,-1.8,53,30.33,10.0,North,17.3,29.9,N/A,,Mostly Cloudy,350,2013-12-29 12:55:00
7:15 AM,12.0,-2.4,53,30.34,10.0,North,16.1,27.6,N/A,,Scattered Clouds,350,2013-12-29 13:15:00
7:35 AM,11.1,-5.6,47,30.35,10.0,North,21.9,27.6,N/A,,Clear,350,2013-12-29 13:35:00
7:55 AM,10.6,-8.9,41,30.36,10.0,North,23.0,31.1,N/A,,Clear,350,2013-12-29 13:55:00
8:15 AM,10.4,-8.3,43,30.37,10.0,North,12.7,24.2,N/A,,Clear,350,2013-12-29 14:15:00
8:35 AM,10.9,-8.3,42,30.38,10.0,North,17.3,26.5,N/A,,Clear,350,2013-12-29 14:35:00
8:55 AM,10.8,-9.2,40,30.38,10.0,North,15.0,23.0,N/A,,Clear,350,2013-12-29 14:55:00
9:15 AM,11.1,-10.3,38,30.39,10.0,North,18.4,26.5,N/A,,Clear,360,2013-12-29 15:15:00
9:35 AM,11.3,-9.9,38,30.39,10.0,NNW,13.8,24.2,N/A,,Clear,340,2013-12-29 15:35:00
9:55 AM,10.9,-13.5,33,30.40,10.0,North,18.4,24.2,N/A,,Clear,350,2013-12-29 15:55:00
10:15 AM,11.3,-14.3,31,30.40,10.0,North,20.7,26.5,N/A,,Clear,350,2013-12-29 16:15:00
10:35 AM,11.8,-14.8,29,30.41,10.0,North,13.8,25.3,N/A,,Clear,360,2013-12-29 16:35:00
10:55 AM,12.4,-14.4,29,30.41,10.0,NNW,13.8,24.2,N/A,,Clear,340,2013-12-29 16:55:00
11:15 AM,12.4,-15.2,28,30.41,10.0,North,16.1,20.7,N/A,,Clear,360,2013-12-29 17:15:00
11:35 AM,13.6,-15.3,27,30.39,10.0,North,13.8,-,N/A,,Clear,350,2013-12-29 17:35:00
11:50 AM,14.5,-15.0,26,30.39,10.0,NNW,17.3,23.0,N/A,,Clear,340,2013-12-29 17:50:00
12:15 PM,15.3,-15.7,24,30.38,10.0,North,18.4,25.3,N/A,,Clear,350,2013-12-29 18:15:00
12:35 PM,15.8,-15.5,24,30.36,10.0,North,12.7,19.6,N/A,,Clear,350,2013-12-29 18:35:00
12:55 PM,17.4,-17.1,21,30.35,10.0,NNW,17.3,20.7,N/A,,Clear,340,2013-12-29 18:55:00
1:15 PM,16.9,-18.4,20,30.34,10.0,NNW,15.0,19.6,N/A,,Clear,340,2013-12-29 19:15:00
1:35 PM,18.9,-18.0,19,30.34,10.0,North,13.8,18.4,N/A,,Clear,10,2013-12-29 19:35:00
1:55 PM,19.2,-19.3,17,30.34,10.0,NNE,15.0,19.6,N/A,,Clear,20,2013-12-29 19:55:00
2:15 PM,19.4,-18.9,17,30.34,10.0,North,15.0,19.6,N/A,,Clear,360,2013-12-29 20:15:00
2:35 PM,19.9,-19.1,17,30.34,10.0,North,11.5,23.0,N/A,,Clear,360,2013-12-29 20:35:00
2:55 PM,19.8,-19.3,17,30.34,10.0,NNW,11.5,18.4,N/A,,Clear,330,2013-12-29 20:55:00
3:15 PM,19.6,-18.4,18,30.34,10.0,NNW,11.5,-,N/A,,Clear,330,2013-12-29 21:15:00
3:35 PM,19.6,-18.2,18,30.34,10.0,NNW,6.9,16.1,N/A,,Clear,340,2013-12-29 21:35:00
3:55 PM,19.8,-17.7,18,30.34,10.0,North,10.4,-,N/A,,Clear,360,2013-12-29 21:55:00
4:15 PM,19.4,-17.9,18,30.33,10.0,North,8.1,-,N/A,,Clear,360,2013-12-29 22:15:00
4:35 PM,18.7,-17.9,19,30.34,10.0,North,8.1,-,N/A,,Clear,360,2013-12-29 22:35:00
4:55 PM,18.0,-15.9,21,30.33,10.0,North,6.9,-,N/A,,Clear,350,2013-12-29 22:55:00
5:15 PM,17.2,-16.1,22,30.32,10.0,North,5.8,-,N/A,,Clear,360,2013-12-29 23:15:00
5:35 PM,16.0,-14.8,25,30.31,10.0,Calm,Calm,-,N/A,,Clear,0,2013-12-29 23:35:00
5:55 PM,14.7,-14.3,27,30.30,10.0,Calm,Calm,-,N/A,,Clear,0,2013-12-29 23:55:00
6:15 PM,13.5,-11.6,32,30.32,10.0,Calm,Calm,-,N/A,,Clear,0,2013-12-30 00:15:00
6:35 PM,12.2,-9.9,37,30.31,10.0,Calm,Calm,-,N/A,,Clear,0,2013-12-30 00:35:00
6:55 PM,11.7,-8.3,40,30.31,10.0,Calm,Calm,-,N/A,,Clear,0,2013-12-30 00:55:00
7:15 PM,10.4,-6.7,46,30.31,10.0,Calm,Calm,-,N/A,,Clear,0,2013-12-30 01:15:00
7:35 PM,9.0,-5.1,53,30.31,10.0,Calm,Calm,-,N/A,,Clear,0,2013-12-30 01:35:00
7:55 PM,9.3,-5.1,52,30.30,10.0,Calm,Calm,-,N/A,,Clear,0,2013-12-30 01:55:00
8:15 PM,7.7,-5.3,56,30.29,10.0,Calm,Calm,-,N/A,,Clear,0,2013-12-30 02:15:00
8:35 PM,9.1,-5.6,51,30.28,10.0,Calm,Calm,-,N/A,,Clear,0,2013-12-30 02:35:00
8:55 PM,8.2,-5.6,53,30.27,10.0,Calm,Calm,-,N/A,,Clear,0,2013-12-30 02:55:00
9:15 PM,7.9,-3.6,59,30.27,10.0,Calm,Calm,-,N/A,,Clear,0,2013-12-30 03:15:00
9:35 PM,7.5,-4.0,59,30.26,10.0,Calm,Calm,-,N/A,,Clear,0,2013-12-30 03:35:00
9:55 PM,7.5,-3.8,60,30.26,10.0,Calm,Calm,-,N/A,,Clear,0,2013-12-30 03:55:00
10:15 PM,7.0,-3.8,61,30.26,10.0,Calm,Calm,-,N/A,,Clear,0,2013-12-30 04:15:00
10:35 PM,7.0,-4.0,61,30.26,10.0,Calm,Calm,-,N/A,,Clear,0,2013-12-30 04:35:00
10:55 PM,7.3,-4.2,59,30.26,10.0,Calm,Calm,-,N/A,,Clear,0,2013-12-30 04:55:00
11:15 PM,6.8,-4.5,60,30.24,10.0,SSE,4.6,-,N/A,,Clear,160,2013-12-30 05:15:00
11:35 PM,8.6,-6.0,52,30.24,10.0,South,3.5,-,N/A,,Clear,170,2013-12-30 05:35:00
11:55 PM,7.9,-6.0,53,30.24,10.0,SSE,3.5,-,N/A,,Clear,160,2013-12-30 05:55:00